Starlink 32400

operational
NORAD ID: 61669 Int'l Des: 2024-193 Owner: SPXS Country: US Constellation: starlink
LEOCIRCULAR

About Starlink 32400

Description loading...

Live Position

Loading 3D Globe...

Upcoming Passes

Altitude History

Altitude vs Time

uPlot chart will show altitude changes over time

Two-Line Element Set

1 61669U 24193J 25351.03863886 -.00000026 00000-0 11243-4 0 9999
2 61669 53.1600 112.6978 0001058 89.5616 270.5506 15.30197214 63904
Epoch: Dec 17, 2025 • Age: 18 hours

Current Status

Altitude 482.5 km
Velocity 7.62 km/s
Sub-Earth Point -24.06°S, 64.33°W
Launch Date Oct 26, 2024
Age 1.1 years
Type internet

Technical Details

Classification Payload
Mass 730.00 kg
Dry Mass 700.00 kg
Total Mass 730.00 kg
Length 0.30 m
Diameter 4.10 m
Span 29.00 m
Shape Box + pan
Manufacturer SPXS
Bus Type Starlink V2M
Phase Status In Orbit
Owner/State SPXS/US

Large Constellations

Loading constellations...